SVR1822 HEGN-URSS

Flight info

Callsign SVR1822
Flight time 3h 6m
Altitude 32000
Route SOLOX1B SOLOX V603 GIDID DCT KAPIT L677 CVO A16 RASDA M855 TOMBI UM855 AYT UM853 BUK UW71 CRM UG901 BALUM/K0822F320 DCT KEPOL G487 DIRUN DIRUN1K
Aircraft A321/M-SDE3FGHIRWY/LB1

Departure

Time 2026-05-05 11:40
Airport Hurghada International Airport (HEGN)

Arrival

Time 2026-05-05 14:46
Airport Sochi International Airport (URSS)
Time Latitude Longitude Altitude Speed Heading
2026-05-05 11:10 27.17776 33.80669 63 ft 0 kts 75°
2026-05-05 11:28 27.17775 33.80666 58 ft 2 kts 75°
2026-05-05 11:28 27.17771 33.80646 52 ft 3 kts 77°
2026-05-05 11:28 27.17767 33.80624 55 ft 3 kts 81°
2026-05-05 11:28 27.17764 33.80601 52 ft 3 kts 85°
2026-05-05 11:29 27.17763 33.80579 52 ft 3 kts 95°
2026-05-05 11:29 27.17767 33.80557 53 ft 3 kts 121°
2026-05-05 11:29 27.17776 33.80546 52 ft 1 kts 163°
2026-05-05 11:29 27.17777 33.80545 50 ft 0 kts 165°
2026-05-05 11:34 27.17765 33.80549 51 ft 5 kts 165°
2026-05-05 11:34 27.17721 33.80562 52 ft 8 kts 165°
2026-05-05 11:35 27.17653 33.80582 54 ft 12 kts 165°
2026-05-05 11:35 27.17566 33.80608 53 ft 13 kts 165°
2026-05-05 11:35 27.17490 33.80585 58 ft 12 kts 242°
2026-05-05 11:35 27.17465 33.80490 57 ft 13 kts 255°
2026-05-05 11:36 27.17417 33.80404 52 ft 14 kts 190°
2026-05-05 11:36 27.17321 33.80429 51 ft 14 kts 165°
2026-05-05 11:36 27.17224 33.80459 50 ft 15 kts 164°
2026-05-05 11:36 27.17124 33.80488 50 ft 15 kts 166°
2026-05-05 11:37 27.17025 33.80516 48 ft 14 kts 166°
2026-05-05 11:37 27.16929 33.80544 51 ft 14 kts 164°
2026-05-05 11:37 27.16828 33.80575 49 ft 16 kts 165°
2026-05-05 11:37 27.16716 33.80608 48 ft 17 kts 165°
2026-05-05 11:38 27.16605 33.80640 49 ft 16 kts 165°
2026-05-05 11:38 27.16493 33.80674 47 ft 17 kts 165°
2026-05-05 11:38 27.16403 33.80686 45 ft 11 kts 205°
2026-05-05 11:38 27.16368 33.80608 44 ft 12 kts 255°
2026-05-05 11:39 27.16405 33.80529 45 ft 18 kts 341°
2026-05-05 11:39 27.16739 33.80430 47 ft 82 kts 345°
2026-05-05 11:39 27.17478 33.80211 54 ft 136 kts 345°
2026-05-05 11:39 27.18542 33.79900 112 ft 173 kts 349°
2026-05-05 11:40 27.19658 33.79582 881 ft 163 kts 343°
2026-05-05 11:40 27.20749 33.79216 1550 ft 164 kts 343°
2026-05-05 11:40 27.21844 33.78832 1995 ft 170 kts 342°
2026-05-05 11:40 27.23015 33.78418 2247 ft 183 kts 341°
2026-05-05 11:41 27.23836 33.78137 2482 ft 188 kts 342°
2026-05-05 11:41 27.25132 33.77708 2724 ft 202 kts 342°
2026-05-05 11:41 27.26556 33.77248 2826 ft 225 kts 342°
2026-05-05 11:41 27.28112 33.76741 3159 ft 238 kts 341°
2026-05-05 11:42 27.29728 33.76214 3705 ft 243 kts 340°
2026-05-05 11:42 27.31371 33.75681 4242 ft 248 kts 339°
2026-05-05 11:42 27.33043 33.75140 4768 ft 253 kts 339°
2026-05-05 11:42 27.34796 33.74755 5296 ft 261 kts 351°
2026-05-05 11:43 27.36624 33.74637 5755 ft 265 kts 352°
2026-05-05 11:43 27.38468 33.74526 6342 ft 267 kts 352°
2026-05-05 11:43 27.40329 33.74414 6895 ft 268 kts 352°
2026-05-05 11:43 27.42205 33.74300 7399 ft 272 kts 353°
2026-05-05 11:44 27.44102 33.74182 7912 ft 275 kts 352°
2026-05-05 11:44 27.46026 33.74063 8406 ft 279 kts 352°
2026-05-05 11:44 27.47976 33.73942 8917 ft 282 kts 352°
2026-05-05 11:44 27.49944 33.73818 9424 ft 285 kts 351°
2026-05-05 11:45 27.51931 33.73692 9912 ft 288 kts 352°
2026-05-05 11:45 27.53951 33.73565 10277 ft 296 kts 351°
2026-05-05 11:45 27.56064 33.73427 10399 ft 313 kts 352°
2026-05-05 11:45 27.58289 33.73280 10513 ft 328 kts 351°
2026-05-05 11:46 27.60616 33.73077 10644 ft 341 kts 348°
2026-05-05 11:46 27.63013 33.72752 10844 ft 351 kts 347°
2026-05-05 11:46 27.65439 33.72359 11226 ft 355 kts 346°
2026-05-05 11:46 27.67924 33.71935 11368 ft 368 kts 347°
2026-05-05 11:47 27.70496 33.71499 11516 ft 378 kts 347°
2026-05-05 11:47 27.73118 33.71068 11850 ft 383 kts 347°
2026-05-05 11:47 27.75767 33.70647 12243 ft 386 kts 347°
2026-05-05 11:47 27.78439 33.70232 12648 ft 389 kts 347°
2026-05-05 11:48 27.83827 33.69408 13508 ft 393 kts 347°
2026-05-05 11:48 27.86544 33.68991 13896 ft 396 kts 347°
2026-05-05 11:48 27.89278 33.68565 14251 ft 398 kts 347°
2026-05-05 11:49 27.92026 33.68134 14618 ft 399 kts 347°
2026-05-05 11:49 27.94785 33.67702 14993 ft 401 kts 347°
2026-05-05 11:49 27.97516 33.67275 15352 ft 402 kts 346°
2026-05-05 11:49 28.00335 33.66834 15712 ft 404 kts 346°
2026-05-05 11:50 28.03089 33.66402 16075 ft 406 kts 346°
2026-05-05 11:50 28.05891 33.65962 16446 ft 408 kts 346°
2026-05-05 11:50 28.08709 33.65522 16786 ft 410 kts 346°
2026-05-05 11:50 28.11538 33.65082 17128 ft 411 kts 346°
2026-05-05 11:51 28.14380 33.64643 17450 ft 413 kts 346°
2026-05-05 11:51 28.17238 33.64201 17781 ft 415 kts 345°
2026-05-05 11:51 28.20033 33.63509 18099 ft 409 kts 335°
2026-05-05 11:51 28.22609 33.62225 18400 ft 402 kts 324°
2026-05-05 11:52 28.24882 33.60432 18683 ft 396 kts 315°
2026-05-05 11:52 28.26988 33.58409 18975 ft 397 kts 315°
2026-05-05 11:52 28.29103 33.56381 19292 ft 399 kts 315°
2026-05-05 11:52 28.31231 33.54346 19611 ft 400 kts 315°
2026-05-05 11:53 28.33364 33.52308 19974 ft 401 kts 314°
2026-05-05 11:53 28.35498 33.50266 20305 ft 402 kts 314°
2026-05-05 11:53 28.37639 33.48212 20611 ft 403 kts 314°
2026-05-05 11:53 28.39783 33.46153 20908 ft 404 kts 314°
2026-05-05 11:54 28.41933 33.44092 21184 ft 405 kts 314°
2026-05-05 11:54 28.44094 33.42024 21450 ft 407 kts 314°
2026-05-05 11:54 28.46258 33.39944 21746 ft 408 kts 314°
2026-05-05 11:54 28.48420 33.37858 22042 ft 408 kts 314°
2026-05-05 11:55 28.50588 33.35766 22328 ft 410 kts 314°
2026-05-05 11:55 28.52767 33.33664 22575 ft 412 kts 314°
2026-05-05 11:55 28.54959 33.31550 22846 ft 413 kts 314°
2026-05-05 11:55 28.57156 33.29430 23103 ft 415 kts 314°
2026-05-05 11:56 28.59360 33.27306 23371 ft 416 kts 314°
2026-05-05 11:56 28.61576 33.25171 23640 ft 418 kts 314°
2026-05-05 11:56 28.63795 33.23031 23859 ft 419 kts 314°
2026-05-05 11:56 28.66022 33.20877 24073 ft 420 kts 314°
2026-05-05 11:57 28.68249 33.18721 24343 ft 421 kts 314°
2026-05-05 11:57 28.70482 33.16560 24568 ft 421 kts 314°
2026-05-05 11:57 28.72718 33.14398 24789 ft 422 kts 314°
2026-05-05 11:57 28.74958 33.12237 25030 ft 422 kts 314°
2026-05-05 11:58 28.77202 33.10069 25158 ft 424 kts 314°
2026-05-05 11:58 28.79455 33.07883 25291 ft 426 kts 314°
2026-05-05 11:58 28.81710 33.05690 25481 ft 426 kts 314°
2026-05-05 11:58 28.83966 33.03502 25706 ft 426 kts 314°
2026-05-05 11:59 28.86221 33.01315 25925 ft 425 kts 314°
2026-05-05 11:59 28.88472 32.99128 26146 ft 425 kts 314°
2026-05-05 11:59 28.90690 32.96969 26366 ft 424 kts 313°
2026-05-05 11:59 28.92934 32.94784 26588 ft 424 kts 313°
2026-05-05 12:00 28.95175 32.92603 26811 ft 423 kts 313°
2026-05-05 12:00 28.97415 32.90420 27023 ft 423 kts 313°
2026-05-05 12:00 28.99651 32.88241 27249 ft 422 kts 314°
2026-05-05 12:00 29.01884 32.86063 27466 ft 422 kts 314°
2026-05-05 12:01 29.04116 32.83886 27684 ft 422 kts 314°
2026-05-05 12:01 29.06349 32.81712 27898 ft 421 kts 314°
2026-05-05 12:01 29.08581 32.79537 28119 ft 421 kts 314°
2026-05-05 12:01 29.10806 32.77363 28340 ft 421 kts 313°
2026-05-05 12:02 29.13026 32.75189 28574 ft 420 kts 313°
2026-05-05 12:02 29.15244 32.73010 28773 ft 420 kts 313°
2026-05-05 12:02 29.17457 32.70835 28988 ft 419 kts 313°
2026-05-05 12:02 29.19669 32.68661 29201 ft 419 kts 313°
2026-05-05 12:03 29.21882 32.66492 29425 ft 419 kts 313°
2026-05-05 12:03 29.24094 32.64325 29641 ft 418 kts 313°
2026-05-05 12:03 29.26305 32.62160 29855 ft 418 kts 313°
2026-05-05 12:03 29.28433 32.59919 30054 ft 413 kts 307°
2026-05-05 12:04 29.30247 32.57392 30226 ft 410 kts 303°
2026-05-05 12:04 29.31999 32.54820 30394 ft 409 kts 303°
2026-05-05 12:04 29.33755 32.52255 30585 ft 409 kts 303°
2026-05-05 12:04 29.35513 32.49697 30813 ft 408 kts 303°
2026-05-05 12:05 29.37268 32.47150 31019 ft 407 kts 303°
2026-05-05 12:05 29.39018 32.44606 31215 ft 406 kts 303°
2026-05-05 12:05 29.40762 32.42062 31382 ft 405 kts 303°
2026-05-05 12:05 29.42504 32.39517 31559 ft 405 kts 303°
2026-05-05 12:06 29.44241 32.36976 31697 ft 405 kts 303°
2026-05-05 12:06 29.45980 32.34431 31866 ft 405 kts 303°
2026-05-05 12:06 29.47715 32.31890 32027 ft 404 kts 303°
2026-05-05 12:06 29.49445 32.29361 32058 ft 402 kts 303°
2026-05-05 12:07 29.52885 32.24329 32070 ft 400 kts 303°
2026-05-05 12:07 29.56311 32.19303 32065 ft 400 kts 303°
2026-05-05 12:08 29.59737 32.14270 32065 ft 399 kts 303°
2026-05-05 12:08 29.63155 32.09241 32068 ft 399 kts 303°
2026-05-05 12:09 29.66574 32.04204 32083 ft 399 kts 303°
2026-05-05 12:09 29.69988 31.99173 32079 ft 399 kts 303°
2026-05-05 12:10 29.73400 31.94135 32083 ft 399 kts 303°
2026-05-05 12:10 29.76800 31.89103 32112 ft 398 kts 303°
2026-05-05 12:11 29.80174 31.84064 32112 ft 396 kts 302°
2026-05-05 12:11 29.83441 31.78963 32108 ft 395 kts 301°
2026-05-05 12:12 29.86678 31.73851 32099 ft 395 kts 301°
2026-05-05 12:12 29.89905 31.68787 32094 ft 395 kts 302°
2026-05-05 12:13 29.93170 31.63704 32095 ft 394 kts 302°
2026-05-05 12:13 29.96458 31.58641 32092 ft 394 kts 302°
2026-05-05 12:14 29.99742 31.53573 32090 ft 394 kts 302°
2026-05-05 12:14 30.03017 31.48492 32090 ft 394 kts 302°
2026-05-05 12:15 30.06309 31.43426 32088 ft 396 kts 306°
2026-05-05 12:15 30.10653 31.39384 32085 ft 413 kts 326°
2026-05-05 12:16 30.13362 31.38170 32081 ft 424 kts 338°
2026-05-05 12:16 30.16291 31.37537 32109 ft 431 kts 342°
2026-05-05 12:16 30.22213 31.36469 32101 ft 430 kts 342°
2026-05-05 12:17 30.28125 31.35391 32078 ft 430 kts 342°
2026-05-05 12:17 30.34033 31.34303 32074 ft 430 kts 342°
2026-05-05 12:18 30.39936 31.33211 32117 ft 429 kts 342°
2026-05-05 12:18 30.45812 31.32131 32074 ft 426 kts 342°
2026-05-05 12:19 30.51670 31.31060 32070 ft 426 kts 342°
2026-05-05 12:19 30.57521 31.29991 32067 ft 426 kts 342°
2026-05-05 12:20 30.63376 31.28907 32072 ft 426 kts 342°
2026-05-05 12:20 30.69227 31.27827 32096 ft 426 kts 342°
2026-05-05 12:21 30.75068 31.26749 32089 ft 425 kts 342°
2026-05-05 12:21 30.80907 31.25673 32077 ft 424 kts 342°
2026-05-05 12:22 30.86737 31.24598 32078 ft 424 kts 342°
2026-05-05 12:22 30.92560 31.23516 32093 ft 422 kts 342°
2026-05-05 12:23 30.98348 31.22439 32088 ft 421 kts 342°
2026-05-05 12:23 31.04128 31.21368 32084 ft 421 kts 342°
2026-05-05 12:24 31.09909 31.20299 32086 ft 420 kts 342°
2026-05-05 12:24 31.15647 31.19223 32125 ft 420 kts 342°
2026-05-05 12:25 31.21460 31.18131 32115 ft 420 kts 342°
2026-05-05 12:25 31.27190 31.17071 32111 ft 420 kts 342°
2026-05-05 12:26 31.32956 31.16001 32102 ft 419 kts 342°
2026-05-05 12:26 31.38720 31.14920 32101 ft 419 kts 342°
2026-05-05 12:27 31.44472 31.13832 32119 ft 418 kts 342°
2026-05-05 12:27 31.50221 31.12751 32105 ft 418 kts 342°
2026-05-05 12:28 31.55051 31.11912 32101 ft 421 kts 345°
2026-05-05 12:28 31.60900 31.11260 32095 ft 423 kts 347°
2026-05-05 12:29 31.66777 31.10734 32116 ft 423 kts 347°
2026-05-05 12:29 31.72628 31.10155 32099 ft 422 kts 346°
2026-05-05 12:30 31.78428 31.09532 32095 ft 421 kts 346°
2026-05-05 12:30 31.84263 31.08886 32093 ft 421 kts 346°
2026-05-05 12:31 31.90107 31.08259 32089 ft 422 kts 346°
2026-05-05 12:31 31.95950 31.07636 32085 ft 422 kts 346°
2026-05-05 12:32 32.01795 31.07009 32085 ft 422 kts 346°
2026-05-05 12:32 32.07637 31.06371 32086 ft 422 kts 346°
2026-05-05 12:33 32.13479 31.05721 32113 ft 422 kts 346°
2026-05-05 12:33 32.19322 31.05070 32105 ft 422 kts 346°
2026-05-05 12:34 32.25172 31.04424 32099 ft 422 kts 346°
2026-05-05 12:34 32.31020 31.03788 32094 ft 422 kts 346°
2026-05-05 12:35 32.36867 31.03137 32083 ft 422 kts 346°
2026-05-05 12:35 32.42719 31.02500 32106 ft 422 kts 347°
2026-05-05 12:36 32.48574 31.01855 32098 ft 423 kts 347°
2026-05-05 12:36 32.54432 31.01210 32084 ft 423 kts 347°
2026-05-05 12:37 32.60288 31.00557 32081 ft 423 kts 347°
2026-05-05 12:37 32.66150 30.99899 32097 ft 423 kts 347°
2026-05-05 12:38 32.72019 30.99257 32080 ft 424 kts 347°
2026-05-05 12:38 32.77888 30.98603 32075 ft 424 kts 347°
2026-05-05 12:39 32.83761 30.97936 32059 ft 424 kts 347°
2026-05-05 12:39 32.89647 30.97272 32073 ft 425 kts 348°
2026-05-05 12:40 32.95552 30.96617 32051 ft 427 kts 348°
2026-05-05 12:40 33.01437 30.95968 32045 ft 428 kts 348°
2026-05-05 12:41 33.07404 30.95307 32045 ft 428 kts 348°
2026-05-05 12:41 33.13315 30.94742 32068 ft 431 kts 351°
2026-05-05 12:42 33.19328 30.94524 32047 ft 433 kts 353°
2026-05-05 12:42 33.25362 30.94401 32045 ft 434 kts 353°
2026-05-05 12:43 33.31407 30.94222 32041 ft 434 kts 352°
2026-05-05 12:43 33.37446 30.93995 32055 ft 435 kts 352°
2026-05-05 12:44 33.43496 30.93741 32049 ft 435 kts 352°
2026-05-05 12:44 33.49554 30.93501 32041 ft 436 kts 352°
2026-05-05 12:45 33.55620 30.93276 32043 ft 436 kts 353°
2026-05-05 12:45 33.61693 30.93054 32059 ft 437 kts 353°
2026-05-05 12:46 33.67766 30.92828 32060 ft 437 kts 353°
2026-05-05 12:46 33.73841 30.92600 32047 ft 437 kts 353°
2026-05-05 12:47 33.79919 30.92365 32071 ft 437 kts 353°
2026-05-05 12:47 33.85988 30.92127 32056 ft 436 kts 353°
2026-05-05 12:48 33.92047 30.91897 32051 ft 435 kts 353°
2026-05-05 12:48 33.98097 30.91651 32047 ft 435 kts 353°
2026-05-05 12:49 34.04137 30.91323 32064 ft 434 kts 353°
2026-05-05 12:49 34.10156 30.90959 32058 ft 433 kts 352°
2026-05-05 12:50 34.16163 30.90611 32053 ft 432 kts 353°
2026-05-05 12:50 34.22166 30.90277 32049 ft 432 kts 353°
2026-05-05 12:51 34.28122 30.89953 32047 ft 431 kts 353°
2026-05-05 12:51 34.34124 30.89671 32045 ft 432 kts 353°
2026-05-05 12:52 34.40126 30.89400 32044 ft 431 kts 353°
2026-05-05 12:52 34.46120 30.89112 32043 ft 431 kts 353°
2026-05-05 12:53 34.52116 30.88810 32055 ft 431 kts 353°
2026-05-05 12:53 34.58104 30.88511 32044 ft 430 kts 353°
2026-05-05 12:54 34.67077 30.88119 32039 ft 430 kts 354°
2026-05-05 12:55 34.73066 30.87948 32055 ft 430 kts 354°
2026-05-05 12:55 34.79042 30.87768 32043 ft 429 kts 354°
2026-05-05 12:56 34.85007 30.87562 32037 ft 429 kts 354°
2026-05-05 12:56 34.90964 30.87355 32037 ft 428 kts 354°
2026-05-05 12:57 34.96917 30.87163 32049 ft 427 kts 354°
2026-05-05 12:57 35.02857 30.86971 32043 ft 426 kts 354°
2026-05-05 12:58 35.08782 30.86777 32039 ft 426 kts 354°
2026-05-05 12:58 35.14702 30.86581 32049 ft 425 kts 354°
2026-05-05 12:59 35.20613 30.86380 32043 ft 424 kts 354°
2026-05-05 12:59 35.26509 30.86182 32038 ft 424 kts 354°
2026-05-05 13:00 35.35342 30.85889 32030 ft 423 kts 354°
2026-05-05 13:01 35.47084 30.85488 32039 ft 421 kts 354°
2026-05-05 13:01 35.52945 30.85291 32035 ft 421 kts 354°
2026-05-05 13:02 35.58800 30.85096 32043 ft 421 kts 354°
2026-05-05 13:02 35.64646 30.84868 32033 ft 420 kts 353°
2026-05-05 13:03 35.70468 30.84517 32028 ft 419 kts 352°
2026-05-05 13:03 35.76293 30.84126 32022 ft 419 kts 352°
2026-05-05 13:04 35.82111 30.83762 32033 ft 419 kts 353°
2026-05-05 13:04 35.87935 30.83418 32026 ft 419 kts 353°
2026-05-05 13:05 35.93749 30.83074 32015 ft 418 kts 353°
2026-05-05 13:05 35.99565 30.82723 32010 ft 418 kts 353°
2026-05-05 13:06 36.05337 30.82376 32015 ft 418 kts 353°
2026-05-05 13:06 36.11155 30.82144 32009 ft 419 kts 354°
2026-05-05 13:07 36.16987 30.81993 32003 ft 419 kts 354°
2026-05-05 13:07 36.22809 30.81822 32003 ft 419 kts 354°
2026-05-05 13:08 36.28631 30.81627 32014 ft 418 kts 354°
2026-05-05 13:08 36.34439 30.81433 32006 ft 417 kts 354°
2026-05-05 13:09 36.40236 30.81239 32002 ft 417 kts 354°
2026-05-05 13:09 36.46031 30.81040 31997 ft 417 kts 354°
2026-05-05 13:10 36.51827 30.80841 31994 ft 417 kts 354°
2026-05-05 13:10 36.57623 30.80641 31996 ft 417 kts 354°
2026-05-05 13:11 36.63423 30.80444 31985 ft 417 kts 354°
2026-05-05 13:11 36.69221 30.80247 31996 ft 417 kts 354°
2026-05-05 13:12 36.75022 30.80045 31992 ft 417 kts 354°
2026-05-05 13:12 36.80824 30.79840 31989 ft 417 kts 354°
2026-05-05 13:13 36.86631 30.79634 31995 ft 418 kts 354°
2026-05-05 13:13 36.92447 30.80305 31993 ft 427 kts 11°
2026-05-05 13:14 36.97044 30.82728 31986 ft 436 kts 23°
2026-05-05 13:14 37.03271 30.86882 31976 ft 437 kts 22°
2026-05-05 13:15 37.08644 30.90433 31992 ft 437 kts 22°
2026-05-05 13:15 37.13147 30.93427 31989 ft 437 kts 22°
2026-05-05 13:16 37.18513 30.97001 31990 ft 437 kts 22°
2026-05-05 13:16 37.23870 31.00585 32016 ft 436 kts 22°
2026-05-05 13:17 37.29204 31.04155 32116 ft 432 kts 22°
2026-05-05 13:17 37.31853 31.05928 32254 ft 432 kts 22°
2026-05-05 13:17 37.34510 31.07703 32382 ft 433 kts 22°
2026-05-05 13:18 37.37171 31.09481 32516 ft 433 kts 22°
2026-05-05 13:18 37.39832 31.11261 32644 ft 433 kts 22°
2026-05-05 13:18 37.42485 31.13042 32792 ft 432 kts 23°
2026-05-05 13:18 37.45128 31.14822 32953 ft 431 kts 23°
2026-05-05 13:19 37.50416 31.18384 32988 ft 430 kts 23°
2026-05-05 13:19 37.55685 31.21942 32995 ft 430 kts 23°
2026-05-05 13:20 37.60953 31.25500 33006 ft 428 kts 23°
2026-05-05 13:20 37.66191 31.29045 32998 ft 427 kts 23°
2026-05-05 13:21 37.71420 31.32583 33003 ft 427 kts 23°
2026-05-05 13:21 37.76651 31.36129 33022 ft 427 kts 23°
2026-05-05 13:22 37.81883 31.39694 33029 ft 427 kts 23°
2026-05-05 13:22 37.87122 31.43266 33035 ft 428 kts 23°
2026-05-05 13:23 37.92362 31.46832 33043 ft 428 kts 23°
2026-05-05 13:23 37.97598 31.50404 33043 ft 428 kts 23°
2026-05-05 13:24 38.02832 31.53984 33057 ft 427 kts 23°
2026-05-05 13:24 38.08050 31.57566 33049 ft 425 kts 23°
2026-05-05 13:25 38.13243 31.61123 33057 ft 424 kts 23°
2026-05-05 13:25 38.18397 31.64642 33053 ft 423 kts 23°
2026-05-05 13:26 38.23569 31.68180 33044 ft 422 kts 23°
2026-05-05 13:26 38.28736 31.71736 33044 ft 422 kts 23°
2026-05-05 13:27 38.33897 31.75294 33042 ft 422 kts 23°
2026-05-05 13:27 38.39054 31.78855 33041 ft 422 kts 23°
2026-05-05 13:28 38.44212 31.82402 33067 ft 421 kts 23°
2026-05-05 13:28 38.49354 31.85959 33051 ft 420 kts 23°
2026-05-05 13:29 38.54480 31.89522 33046 ft 419 kts 23°
2026-05-05 13:29 38.59601 31.93065 33056 ft 418 kts 23°
2026-05-05 13:30 38.64715 31.96607 33040 ft 418 kts 23°
2026-05-05 13:30 38.69818 32.00164 33036 ft 417 kts 23°
2026-05-05 13:31 38.74915 32.03727 33033 ft 417 kts 23°
2026-05-05 13:31 38.80011 32.07287 33028 ft 417 kts 23°
2026-05-05 13:32 38.85076 32.10829 33041 ft 417 kts 23°
2026-05-05 13:32 38.90156 32.14392 33034 ft 416 kts 23°
2026-05-05 13:33 38.95235 32.17965 33033 ft 416 kts 24°
2026-05-05 13:33 39.00310 32.21538 33023 ft 416 kts 23°
2026-05-05 13:34 39.05385 32.25104 33017 ft 416 kts 23°
2026-05-05 13:34 39.10459 32.28671 33016 ft 416 kts 24°
2026-05-05 13:35 39.15535 32.32249 33005 ft 416 kts 24°
2026-05-05 13:35 39.20610 32.35839 33031 ft 416 kts 24°
2026-05-05 13:36 39.25678 32.39435 33022 ft 416 kts 24°
2026-05-05 13:36 39.30746 32.43035 33003 ft 416 kts 24°
2026-05-05 13:37 39.35816 32.46647 32995 ft 416 kts 24°
2026-05-05 13:37 39.40883 32.50252 33012 ft 416 kts 24°
2026-05-05 13:38 39.45953 32.53863 33005 ft 416 kts 24°
2026-05-05 13:38 39.51023 32.57490 33003 ft 416 kts 24°
2026-05-05 13:39 39.56086 32.61123 32981 ft 416 kts 24°
2026-05-05 13:39 39.61150 32.64757 33007 ft 416 kts 24°
2026-05-05 13:40 39.66210 32.68392 33005 ft 416 kts 24°
2026-05-05 13:40 39.71270 32.72026 32994 ft 416 kts 24°
2026-05-05 13:41 39.76330 32.75670 32989 ft 416 kts 24°
2026-05-05 13:41 39.81382 32.79316 32985 ft 415 kts 25°
2026-05-05 13:42 39.86434 32.82973 32982 ft 415 kts 24°
2026-05-05 13:42 39.91488 32.86630 32977 ft 416 kts 25°
2026-05-05 13:43 39.96543 32.90295 33002 ft 416 kts 25°
2026-05-05 13:43 40.01598 32.93965 32983 ft 416 kts 25°
2026-05-05 13:44 40.06649 32.97656 32983 ft 416 kts 25°
2026-05-05 13:44 40.11701 33.01348 32957 ft 416 kts 25°
2026-05-05 13:45 40.16754 33.05039 32992 ft 416 kts 25°
2026-05-05 13:45 40.21665 33.08963 32985 ft 421 kts 35°
2026-05-05 13:46 40.25535 33.14794 32975 ft 433 kts 54°
2026-05-05 13:46 40.28109 33.22011 32967 ft 438 kts 60°
2026-05-05 13:47 40.30590 33.29318 32984 ft 439 kts 61°
2026-05-05 13:47 40.33072 33.36642 32963 ft 440 kts 61°
2026-05-05 13:48 40.35550 33.43985 32949 ft 441 kts 61°
2026-05-05 13:48 40.38032 33.51344 32954 ft 441 kts 61°
2026-05-05 13:49 40.40508 33.58708 32975 ft 441 kts 62°
2026-05-05 13:49 40.42973 33.66080 32976 ft 441 kts 62°
2026-05-05 13:50 40.45208 33.73587 32974 ft 444 kts 67°
2026-05-05 13:50 40.47122 33.81293 32971 ft 444 kts 67°
2026-05-05 13:51 40.49036 33.89005 32992 ft 444 kts 68°
2026-05-05 13:51 40.50989 33.96686 32992 ft 443 kts 66°
2026-05-05 13:52 40.53264 34.04196 32972 ft 442 kts 63°
2026-05-05 13:52 40.55676 34.11624 32969 ft 442 kts 63°
2026-05-05 13:53 40.58035 34.19089 32982 ft 442 kts 64°
2026-05-05 13:53 40.60329 34.26599 32980 ft 442 kts 65°
2026-05-05 13:54 40.62604 34.34117 32985 ft 442 kts 65°
2026-05-05 13:54 40.64888 34.41626 32985 ft 442 kts 65°
2026-05-05 13:55 40.67173 34.49134 32990 ft 442 kts 65°
2026-05-05 13:55 40.69453 34.56643 32990 ft 441 kts 65°
2026-05-05 13:56 40.71721 34.64151 32988 ft 441 kts 65°
2026-05-05 13:56 40.73983 34.71673 32991 ft 441 kts 65°
2026-05-05 13:57 40.76238 34.79198 32998 ft 441 kts 66°
2026-05-05 13:57 40.78440 34.86699 32992 ft 441 kts 66°
2026-05-05 13:58 40.80658 34.94312 32989 ft 441 kts 66°
2026-05-05 13:58 40.82857 35.01820 32995 ft 442 kts 66°
2026-05-05 13:59 40.86187 35.13226 33002 ft 442 kts 67°
2026-05-05 14:00 40.89120 35.23331 32992 ft 443 kts 67°
2026-05-05 14:00 40.91323 35.30931 32988 ft 443 kts 67°
2026-05-05 14:01 40.93875 35.39788 32984 ft 444 kts 67°
2026-05-05 14:01 40.95719 35.46175 32981 ft 444 kts 67°
2026-05-05 14:02 40.97920 35.53809 32989 ft 444 kts 67°
2026-05-05 14:02 41.00109 35.61452 32994 ft 444 kts 68°
2026-05-05 14:03 41.02289 35.69112 33019 ft 444 kts 68°
2026-05-05 14:03 41.04506 35.76754 33021 ft 444 kts 67°
2026-05-05 14:04 41.06758 35.84372 33028 ft 444 kts 67°
2026-05-05 14:04 41.09006 35.92002 33029 ft 444 kts 67°
2026-05-05 14:05 41.11214 35.99663 33038 ft 445 kts 68°
2026-05-05 14:05 41.13370 36.07360 33034 ft 446 kts 69°
2026-05-05 14:06 41.15511 36.15089 33036 ft 446 kts 69°
2026-05-05 14:06 41.17663 36.22817 33042 ft 447 kts 69°
2026-05-05 14:07 41.19826 36.30556 33037 ft 447 kts 69°
2026-05-05 14:07 41.21982 36.38307 33039 ft 447 kts 69°
2026-05-05 14:08 41.24127 36.46066 33040 ft 448 kts 69°
2026-05-05 14:08 41.27076 36.53301 33038 ft 447 kts 51°
2026-05-05 14:09 41.31664 36.58799 33029 ft 446 kts 31°
2026-05-05 14:09 41.37036 36.62945 33032 ft 447 kts 30°
2026-05-05 14:10 41.42421 36.67107 33020 ft 448 kts 30°
2026-05-05 14:10 41.47810 36.71280 33029 ft 448 kts 30°
2026-05-05 14:11 41.53208 36.75468 33033 ft 449 kts 31°
2026-05-05 14:11 41.58618 36.79668 33029 ft 450 kts 31°
2026-05-05 14:12 41.64036 36.83877 33018 ft 451 kts 31°
2026-05-05 14:12 41.69460 36.88108 33027 ft 452 kts 31°
2026-05-05 14:13 41.74885 36.92349 33032 ft 452 kts 31°
2026-05-05 14:13 41.80307 36.96593 33043 ft 450 kts 31°
2026-05-05 14:14 41.85713 37.00835 33042 ft 450 kts 31°
2026-05-05 14:14 41.91114 37.05098 33043 ft 450 kts 31°
2026-05-05 14:15 41.96522 37.09345 33038 ft 450 kts 31°
2026-05-05 14:15 42.01937 37.13591 33032 ft 451 kts 32°
2026-05-05 14:16 42.07353 37.17857 33037 ft 451 kts 32°
2026-05-05 14:16 42.12737 37.22106 33034 ft 451 kts 32°
2026-05-05 14:17 42.18154 37.26392 33026 ft 451 kts 32°
2026-05-05 14:17 42.23562 37.30686 33026 ft 451 kts 32°
2026-05-05 14:18 42.28972 37.34982 33024 ft 451 kts 32°
2026-05-05 14:18 42.34379 37.39284 33027 ft 451 kts 32°
2026-05-05 14:19 42.39778 37.43594 33033 ft 450 kts 32°
2026-05-05 14:19 42.45135 37.47873 32713 ft 440 kts 32°
2026-05-05 14:20 42.47758 37.49972 32439 ft 436 kts 32°
2026-05-05 14:20 42.50357 37.52052 32184 ft 433 kts 32°
2026-05-05 14:20 42.52942 37.54122 31932 ft 430 kts 32°
2026-05-05 14:20 42.55499 37.56175 31555 ft 425 kts 32°
2026-05-05 14:21 42.58028 37.58211 31064 ft 421 kts 32°
2026-05-05 14:21 42.60538 37.60231 30594 ft 417 kts 32°
2026-05-05 14:21 42.63023 37.62230 30120 ft 414 kts 32°
2026-05-05 14:21 42.65490 37.64217 29585 ft 410 kts 32°
2026-05-05 14:22 42.67924 37.66181 29135 ft 404 kts 32°
2026-05-05 14:22 42.70296 37.68164 28683 ft 398 kts 34°
2026-05-05 14:22 42.72596 37.70226 28234 ft 393 kts 36°
2026-05-05 14:22 42.74837 37.72318 27797 ft 388 kts 36°
2026-05-05 14:23 42.77033 37.74401 27384 ft 383 kts 37°
2026-05-05 14:23 42.79213 37.76466 26963 ft 379 kts 36°
2026-05-05 14:23 42.81371 37.78496 26538 ft 374 kts 36°
2026-05-05 14:23 42.83506 37.80487 26159 ft 370 kts 36°
2026-05-05 14:24 42.85596 37.82420 25781 ft 366 kts 36°
2026-05-05 14:24 42.87693 37.84353 25396 ft 362 kts 36°
2026-05-05 14:24 42.89767 37.86264 25021 ft 359 kts 36°
2026-05-05 14:24 42.91831 37.88171 24642 ft 357 kts 36°
2026-05-05 14:25 42.93886 37.90071 24261 ft 356 kts 36°
2026-05-05 14:25 42.95928 37.91962 23884 ft 354 kts 36°
2026-05-05 14:25 42.97960 37.93848 23470 ft 352 kts 36°
2026-05-05 14:25 42.99985 37.95724 23063 ft 351 kts 37°
2026-05-05 14:26 43.01856 37.97829 22664 ft 346 kts 47°
2026-05-05 14:26 43.03385 38.00331 22284 ft 342 kts 58°
2026-05-05 14:26 43.04554 38.03132 21890 ft 337 kts 68°
2026-05-05 14:26 43.05429 38.06089 21492 ft 334 kts 70°
2026-05-05 14:27 43.06278 38.09037 21095 ft 332 kts 70°
2026-05-05 14:27 43.07126 38.11963 20698 ft 330 kts 70°
2026-05-05 14:27 43.07967 38.14865 20308 ft 327 kts 71°
2026-05-05 14:27 43.08603 38.17828 19914 ft 323 kts 81°
2026-05-05 14:28 43.08857 38.20904 19647 ft 335 kts 87°
2026-05-05 14:28 43.09035 38.24130 19365 ft 343 kts 87°
2026-05-05 14:28 43.09230 38.27385 19070 ft 343 kts 86°
2026-05-05 14:28 43.09430 38.30635 18776 ft 342 kts 86°
2026-05-05 14:29 43.09627 38.33869 18482 ft 340 kts 86°
2026-05-05 14:29 43.09818 38.37078 18175 ft 339 kts 86°
2026-05-05 14:29 43.10008 38.40293 17866 ft 337 kts 86°
2026-05-05 14:29 43.10196 38.43484 17570 ft 336 kts 86°
2026-05-05 14:30 43.10379 38.46668 17287 ft 335 kts 87°
2026-05-05 14:30 43.10557 38.49829 17009 ft 333 kts 87°
2026-05-05 14:30 43.10735 38.52982 16715 ft 332 kts 86°
2026-05-05 14:30 43.10910 38.56124 16429 ft 330 kts 86°
2026-05-05 14:31 43.11083 38.59248 16144 ft 328 kts 87°
2026-05-05 14:31 43.11256 38.62357 15853 ft 327 kts 86°
2026-05-05 14:31 43.11430 38.65462 15577 ft 327 kts 87°
2026-05-05 14:31 43.11602 38.68549 15297 ft 325 kts 87°
2026-05-05 14:32 43.11774 38.71628 15015 ft 323 kts 87°
2026-05-05 14:32 43.11943 38.74701 14739 ft 324 kts 88°
2026-05-05 14:32 43.12112 38.77764 14461 ft 322 kts 87°
2026-05-05 14:32 43.12277 38.80807 14183 ft 320 kts 88°
2026-05-05 14:33 43.12439 38.83847 13910 ft 320 kts 88°
2026-05-05 14:33 43.12600 38.86879 13621 ft 319 kts 87°
2026-05-05 14:33 43.12761 38.89894 13339 ft 317 kts 87°
2026-05-05 14:33 43.12924 38.92902 13066 ft 317 kts 86°
2026-05-05 14:34 43.13088 38.95909 12793 ft 316 kts 86°
2026-05-05 14:34 43.13249 38.98901 12519 ft 315 kts 86°
2026-05-05 14:34 43.13408 39.01887 12245 ft 315 kts 86°
2026-05-05 14:34 43.13563 39.04872 11976 ft 313 kts 86°
2026-05-05 14:35 43.13713 39.07841 11706 ft 312 kts 86°
2026-05-05 14:35 43.13863 39.10802 11437 ft 311 kts 87°
2026-05-05 14:35 43.14016 39.13753 11169 ft 310 kts 87°
2026-05-05 14:35 43.14166 39.16689 10902 ft 308 kts 86°
2026-05-05 14:36 43.14313 39.19615 10641 ft 307 kts 86°
2026-05-05 14:36 43.14458 39.22531 10375 ft 307 kts 87°
2026-05-05 14:36 43.14604 39.25450 10113 ft 304 kts 87°
2026-05-05 14:36 43.14746 39.28280 9930 ft 294 kts 86°
2026-05-05 14:37 43.15127 39.30990 9703 ft 287 kts 73°
2026-05-05 14:37 43.15749 39.33601 9399 ft 288 kts 72°
2026-05-05 14:37 43.16364 39.36200 9041 ft 286 kts 72°
2026-05-05 14:37 43.16972 39.38782 8673 ft 284 kts 72°
2026-05-05 14:38 43.17573 39.41351 8303 ft 282 kts 72°
2026-05-05 14:38 43.18171 39.43908 7939 ft 281 kts 71°
2026-05-05 14:38 43.18766 39.46449 7586 ft 279 kts 71°
2026-05-05 14:38 43.19356 39.48975 7227 ft 278 kts 71°
2026-05-05 14:39 43.19942 39.51487 6873 ft 276 kts 70°
2026-05-05 14:39 43.20517 39.53955 6523 ft 274 kts 71°
2026-05-05 14:39 43.21097 39.56440 6158 ft 273 kts 71°
2026-05-05 14:39 43.21672 39.58912 5786 ft 272 kts 70°
2026-05-05 14:40 43.22251 39.61410 5453 ft 270 kts 70°
2026-05-05 14:40 43.22800 39.63782 5304 ft 260 kts 71°
2026-05-05 14:40 43.23340 39.66117 5030 ft 255 kts 70°
2026-05-05 14:40 43.23874 39.68431 4693 ft 254 kts 70°
2026-05-05 14:41 43.24345 39.70758 4362 ft 253 kts 76°
2026-05-05 14:41 43.24792 39.73038 4054 ft 252 kts 70°
2026-05-05 14:41 43.25330 39.75314 3692 ft 251 kts 69°
2026-05-05 14:41 43.25887 39.77573 3193 ft 246 kts 70°
2026-05-05 14:42 43.26448 39.79734 2842 ft 237 kts 63°
2026-05-05 14:42 43.27313 39.81636 2554 ft 231 kts 48°
2026-05-05 14:42 43.28452 39.83103 2379 ft 219 kts 32°
2026-05-05 14:42 43.29736 39.84193 2316 ft 214 kts 26°
2026-05-05 14:43 43.30998 39.85145 2232 ft 199 kts 26°
2026-05-05 14:43 43.32170 39.86020 2130 ft 184 kts 25°
2026-05-05 14:43 43.33247 39.86825 2045 ft 170 kts 25°
2026-05-05 14:43 43.34261 39.87582 1984 ft 163 kts 25°
2026-05-05 14:44 43.35255 39.88325 1827 ft 162 kts 26°
2026-05-05 14:44 43.36243 39.89064 1631 ft 162 kts 26°
2026-05-05 14:44 43.37215 39.89793 1413 ft 155 kts 26°
2026-05-05 14:44 43.38165 39.90504 1217 ft 154 kts 25°
2026-05-05 14:45 43.39100 39.91205 1011 ft 153 kts 26°
2026-05-05 14:45 43.40035 39.91908 833 ft 153 kts 25°
2026-05-05 14:45 43.40967 39.92599 644 ft 153 kts 24°
2026-05-05 14:45 43.41585 39.93057 509 ft 152 kts 27°
2026-05-05 14:46 43.42511 39.93754 305 ft 151 kts 26°
2026-05-05 14:46 43.43429 39.94455 110 ft 151 kts 27°
2026-05-05 14:46 43.44300 39.95105 81 ft 126 kts 28°
2026-05-05 14:46 43.44797 39.95485 90 ft 38 kts 28°
2026-05-05 14:47 43.44903 39.95564 89 ft 15 kts 28°
2026-05-05 14:47 43.44998 39.95558 91 ft 14 kts 328°
2026-05-05 14:47 43.45073 39.95492 92 ft 13 kts 314°
2026-05-05 14:47 43.45094 39.95361 92 ft 17 kts 257°
2026-05-05 14:48 43.45038 39.95196 88 ft 21 kts 245°
2026-05-05 14:48 43.44964 39.95033 83 ft 20 kts 236°
2026-05-05 14:48 43.44898 39.94845 71 ft 23 kts 245°
2026-05-05 14:48 43.44826 39.94637 72 ft 24 kts 244°
2026-05-05 14:49 43.44765 39.94459 70 ft 11 kts 244°
2026-05-05 14:49 43.44797 39.94385 71 ft 6 kts 334°
2026-05-05 14:49 43.44810 39.94376 69 ft 1 kts 334°